Lulu Pass Weather Station

This weather station provides temperature, relative humidity (RH), wind speed, gust or max wind speed, and wind direction at 10020ft near Lulu Pass at the head of Fisher Creek. This data can be used with temperature and precipitation data from the Fisher Creek SNOTEL site.

This weather station was purchased by the Friends of the Avalanche Center.

If the data has not been updated recently you can view it directly on datagarrison.com

Elevation
10020ft
Jump to table bottom
Date Time Temperature
deg F
RH, % Wind Speed Wind Gust Wind Direction
05/28/22 22:00 28.3 99 5 10 W - 250
05/28/22 21:00 28.2 99 5 11 SW - 212
05/28/22 20:00 28.8 99 6 12 SW - 206
05/28/22 19:00 29.1 99 7 19 SW - 204
05/28/22 18:00 31.2 99 5 14 W - 256
05/28/22 17:00 31.5 98 5 12 W - 250
05/28/22 16:00 32.9 96 3 9 SW - 240
05/28/22 15:00 34.6 96 4 11 SW - 229
05/28/22 14:00 34.5 96 5 10 SW - 216
05/28/22 13:00 34.4 97 4 10 SW - 206
05/28/22 12:00 35.1 98 5 11 SW - 205
05/28/22 11:00 32.6 98 6 14 S - 159
05/28/22 10:00 34.4 98 5 10 SE - 143
05/28/22 09:00 33.3 98 6 11 SE - 132
05/28/22 08:00 32.8 98 5 11 SE - 154
05/28/22 07:00 32.2 98 10 19 S - 199
05/28/22 06:00 32.3 98 11 25 S - 199
05/28/22 05:00 32.1 98 7 18 SW - 226
05/28/22 04:00 32.5 95 13 28 SW - 240
05/28/22 03:00 33.7 93 15 34 SW - 211
05/28/22 02:00 34.8 93 13 31 SW - 232
05/28/22 01:00 34.8 92 13 31 SW - 211
05/28/22 00:00 35.5 90 14 35 SW - 209
05/27/22 23:00 37.0 77 21 34 S - 194
05/27/22 22:00 39.5 65 19 36 S - 198
05/27/22 21:00 41.3 58 16 31 S - 199
05/27/22 20:00 42.2 60 16 36 S - 195
05/27/22 19:00 43.4 60 20 39 S - 192
05/27/22 18:00 43.4 61 14 35 S - 198
05/27/22 17:00 43.8 67 13 31 SW - 241
05/27/22 16:00 42.6 66 14 29 SW - 230
05/27/22 15:00 43.7 65 16 33 SW - 206
05/27/22 14:00 44.3 65 13 31 SW - 222
05/27/22 13:00 43.4 76 16 32 SW - 215
05/27/22 12:00 39.4 85 14 34 SW - 220
05/27/22 11:00 38.7 92 11 26 SW - 233
05/27/22 10:00 37.8 96 12 34 SW - 239
05/27/22 09:00 36.5 97 17 34 SW - 212
05/27/22 08:00 36.6 95 18 37 SW - 204
05/27/22 07:00 37.3 92 17 42 SW - 209
05/27/22 06:00 36.6 83 16 39 SW - 208
05/27/22 05:00 40.0 83 13 26 SW - 206
05/27/22 04:00 39.0 81 15 45 SW - 215
05/27/22 03:00 39.5 85 10 21 W - 284
05/27/22 02:00 39.5 71 11 30 SW - 244
05/27/22 01:00 42.7 73 12 31 SW - 234
05/27/22 00:00 43.5 66 24 42 S - 191
05/26/22 23:00 43.2 71 19 40 S - 171
05/26/22 22:00 42.6 71 16 33 S - 164
05/26/22 21:00 41.6 66 16 42 SW - 247